Location: Bakov nad Jizerou
(50.4784°N, 14.9394°E)
Time: 05:36:40
(UTC+00:00)

ATLAS 3B R/B - Visible Passes

Search period start: 18 October 2021 00:00
Search period end: 28 October 2021 00:00
Orbit: 991 x 1203 km, 63.8° (Epoch: 15 October)

Date Brightness Start Highest point End Pass type
(mag) Time Alt. Az. Time Alt. Az. Time Alt. Az.
18 Oct 2.7 16:55:52 10° SW 17:02:26 87° SE 17:09:22 10° NE visible
18 Oct 3.9 18:47:46 10° W 18:53:54 37° NNW 18:58:42 17° NE visible
18 Oct 4.3 20:40:48 10° NW 20:45:57 27° N 20:45:57 27° N visible
18 Oct 5.2 22:32:28 10° NW 22:33:10 13° NW 22:33:10 13° NW visible
19 Oct 3.5 17:59:51 10° WSW 18:06:13 46° NNW 18:12:46 11° NE visible
19 Oct 4.2 19:52:53 10° WNW 19:58:37 28° N 20:00:00 26° NNE visible
19 Oct 4.8 21:45:03 10° NW 21:47:14 20° NNW 21:47:14 20° NNW visible
20 Oct 3.1 17:12:08 10° WSW 17:18:40 62° NW 17:25:34 10° NE visible
20 Oct 4.2 19:04:52 10° WNW 19:10:43 30° NNW 19:14:03 21° NNE visible
20 Oct 4.5 20:57:30 10° NW 21:01:17 25° NNW 21:01:17 25° NNW visible
21 Oct 2.8 16:24:41 10° SW 16:31:16 85° NW 16:38:14 10° NE visible
21 Oct 4.0 18:16:49 10° W 18:22:53 35° NNW 18:28:06 15° NE visible
21 Oct 4.2 20:09:48 10° NW 20:15:21 28° N 20:15:21 28° N visible
21 Oct 5.0 22:01:19 10° NW 22:02:35 16° NW 22:02:35 16° NW visible
22 Oct 3.7 17:28:52 10° W 17:35:10 43° NNW 17:41:48 10° NE visible
22 Oct 4.2 19:21:56 10° WNW 19:27:40 27° N 19:29:23 25° NNE visible
22 Oct 4.7 21:13:55 10° NW 21:16:38 22° NNW 21:16:38 22° NNW visible
23 Oct 3.3 16:41:05 10° WSW 16:47:34 56° NW 16:54:25 10° NE visible
23 Oct 4.2 18:33:56 10° WNW 18:39:44 29° NNW 18:43:27 19° NNE visible
23 Oct 4.3 20:26:26 10° NW 20:30:41 28° N 20:30:41 28° N visible
23 Oct 5.3 22:17:28 10° NW 22:17:55 12° NW 22:17:55 12° NW visible
24 Oct 4.0 17:45:53 10° W 17:51:53 33° NNW 17:57:30 13° NE visible
24 Oct 4.1 19:38:47 10° NW 19:44:38 28° N 19:44:44 28° N visible
24 Oct 4.9 21:30:10 10° NW 21:31:58 19° NW 21:31:58 19° NW visible
25 Oct 3.7 16:57:53 10° W 17:04:07 40° NNW 17:10:41 10° NE visible
25 Oct 4.1 18:50:57 10° WNW 18:56:42 27° N 18:58:48 24° NNE visible
25 Oct 4.5 20:42:49 10° NW 20:46:01 26° NNW 20:46:01 26° NNW visible
26 Oct 3.4 16:10:02 10° WSW 16:16:29 51° NW 16:23:17 10° NE visible
26 Oct 4.1 18:02:59 10° WNW 18:08:46 28° N 18:12:50 17° NE visible
26 Oct 4.1 19:55:21 10° NW 20:00:05 30° N 20:00:05 30° N visible
26 Oct 5.1 21:46:19 10° NW 21:47:19 15° NW 21:47:19 15° NW visible
27 Oct 4.0 17:14:57 10° WNW 17:20:54 31° NNW 17:26:55 11° NE visible
27 Oct 4.0 19:07:45 10° NW 19:13:41 29° N 19:14:09 29° NNE visible
27 Oct 4.7 20:59:01 10° NW 21:01:23 22° NNW 21:01:23 22° NNW visible
